Location: Del Amo
(33.8464°N, 118.2104°W)
Time: 07:46:51
(UTC+00:00)

Vanguard 1 Rocket - Pass Details

Date: 22 September 2024
Orbit: 650 x 4218 km, 34.3° (Epoch: 09 October)

Event Time Altitude Azimuth Distance (km) Brightness Sun altitude
Rises 13:43:08 0° 282° (WNW) 5,940 10.9 -0.5°
Reaches altitude 10° 13:46:18 10° 281° (W) 5,296 10.7 0.2°
Maximum altitude 14:04:17 82° 198° (SSW) 3,795 10.6 3.9°
Drops below altitude 10° 14:30:54 10° 115° (ESE) 7,320 13.7 9.4°
Sets 14:36:18 0° 115° (ESE) 8,175 13.9 10.5°
